Wind_Speed
7 7 6 7 7 6 6 6 5 5 5 5 4 4 4 4 3 3 3 3 2 3 3 3 3 3 4 3 3 3 3 4 4 4 4 4 5 5 5 5 5 5 6
7 7 7 7 7 6 6 6 5 5 5 5 5 5 5 4 3 3 3 3 3 3 3 3 4 3 3 3 3 4 4 4 4 4 4 4 4 5 5 4 5 5 6
7 7 7 7 7 7 6 6 6 6 6 5 5 5 5 4 4 4 4 4 4 4 4 4 4 3 3 3 3 3 4 4 4 4 4 4 4 5 5 5 5 6 6
7 7 8 8 8 8 7 7 6 6 6 6 6 5 5 5 5 5 4 4 4 4 4 4 4 3 3 3 3 3 3 4 4 5 5 4 5 5 5 5 5 5 6
7 7 8 9 8 8 8 8 7 7 7 6 6 5 5 5 5 5 5 4 5 5 5 5 4 3 3 3 3 3 3 4 4 4 4 5 5 5 6 6 5 5 6
8 8 8 9 9 8 8 8 8 7 7 7 6 6 5 5 5 6 6 5 5 6 6 5 4 4 4 3 3 3 3 3 4 5 5 5 5 6 6 7 6 6 7
8 8 8 9 9 9 8 8 8 7 7 7 7 7 6 5 5 6 6 7 6 6 6 6 5 5 5 4 3 3 3 4 4 5 6 6 6 6 7 7 7 7 7
8 8 8 9 9 9 8 8 8 7 7 7 7 7 6 6 6 7 7 7 8 7 7 6 5 5 5 4 3 3 3 4 5 5 6 6 6 6 6 7 7 7 8
8 9 9 8 8 9 8 8 8 8 7 8 7 7 7 6 6 7 7 7 7 8 8 7 5 5 5 4 4 3 3 3 4 5 6 6 6 6 6 6 8 9 9
9 9 9 9 9 9 9 8 8 8 8 8 8 7 7 6 6 7 7 7 7 7 7 7 6 6 6 5 5 4 3 3 4 4 5 6 6 6 6 6 7 7 7
9 10 9 9 9 9 9 9 9 9 9 9 8 8 8 7 7 7 7 7 7 7 7 7 6 5 6 6 6 5 4 4 4 4 4 4 5 6 6 7 8 8 9
10 10 10 10 9 9 10 10 9 9 9 9 9 9 8 7 7 8 8 7 7 7 7 7 6 5 6 6 6 6 5 4 3 3 3 3 4 5 5 6 8 9 8
10 11 11 10 10 10 10 10 10 9 9 9 9 9 8 8 8 9 8 8 8 8 7 7 7 5 5 6 6 6 6 4 4 4 3 4 4 5 5 6 7 8 9
11 11 11 10 11 11 11 11 11 10 10 9 9 10 10 10 9 9 9 9 8 8 8 7 7 6 6 6 7 7 7 6 5 5 5 5 5 5 6 6 6 7 8
11 11 11 11 11 12 12 12 11 11 11 10 10 10 11 10 10 9 9 8 8 8 9 9 8 8 8 8 8 8 8 7 7 6 6 5 5 5 6 7 8 7 8
11 12 12 12 12 13 13 13 12 11 11 10 10 11 11 11 10 10 9 9 9 9 9 9 9 9 9 9 8 8 7 7 7 7 7 6 5 5 5 6 7 7 7
12 12 12 13 13 13 13 13 12 11 11 11 11 11 12 11 10 10 9 10 10 11 10 10 10 10 9 9 9 8 8 8 8 8 7 7 6 5 6 6 7 7 8
12 13 13 13 13 13 13 14 12 12 12 12 12 13 13 13 11 11 11 11 11 11 11 10 10 10 10 10 9 9 9 9 9 9 8 7 7 7 7 7 8 9 9
13 13 13 13 13 13 13 13 12 13 13 13 13 13 14 13 12 12 12 12 11 10 11 10 10 11 11 11 10 10 9 9 10 10 9 9 8 8 9 9 8 9 9
14 13 13 13 13 13 13 13 12 13 13 14 14 14 14 13 12 12 12 12 11 12 12 11 11 11 11 11 11 10 10 10 11 11 11 10 9 9 9 10 9 9 9
14 14 13 13 13 13 13 13 13 13 13 14 14 14 14 13 12 12 12 12 13 13 13 12 12 12 12 12 12 12 12 11 12 11 11 11 11 10 10 10 10 10 11
13 13 13 13 14 14 13 14 14 14 14 14 14 14 14 13 13 13 13 13 13 13 13 12 12 12 12 13 13 13 13 12 12 12 12 11 12 11 10 10 11 11 11
14 14 14 14 14 14 14 14 15 15 15 14 14 14 14 14 13 13 13 13 13 13 14 13 13 13 13 14 14 14 14 14 12 12 12 12 12 11 11 11 11 12 12
15 15 15 15 15 14 14 15 16 16 15 15 15 15 14 14 14 14 14 13 13 14 14 14 14 14 14 14 14 15 15 15 13 12 12 12 13 13 13 13 14 14 14
15 16 16 16 16 15 15 15 16 16 15 15 15 15 15 14 14 15 15 15 14 14 15 15 15 15 15 15 15 15 15 15 15 13 13 13 14 14 14 15 15 15 16
17 17 17 17 17 17 16 16 16 16 15 15 16 16 16 15 15 16 15 16 15 15 16 16 15 15 15 15 16 15 15 16 16 15 15 14 15 15 15 16 16 16 16
Wind_Direction
12 13 8 7 8 6 357 353 353 352 350 349 354 355 352 352 350 350 345 348 349 340 323 318 314 310 308 295 285 275 257 246 246 245 236 228 226 215 217 221 218 219 211
9 9 6 3 2 3 357 353 351 349 347 347 350 348 346 345 347 348 348 349 347 347 334 322 312 300 297 290 282 274 258 249 247 244 235 226 218 214 223 225 218 213 205
5 5 3 1 358 358 359 354 349 346 341 340 343 346 348 348 349 347 352 357 357 356 349 339 328 310 297 291 283 272 257 249 244 240 240 226 213 211 224 232 227 211 204
4 5 1 1 356 354 354 353 347 343 341 339 342 346 348 347 349 351 353 357 3 5 358 348 339 329 319 308 291 275 257 247 244 240 239 225 218 218 229 227 227 228 215
2 2 359 360 358 356 354 350 347 346 344 344 344 345 346 348 351 356 356 356 357 2 3 1 357 346 334 318 301 281 265 253 242 241 243 237 228 224 232 232 225 222 217
358 0 0 1 360 359 358 355 352 349 348 348 350 351 347 347 350 359 0 356 351 352 359 5 5 359 340 330 321 297 269 257 246 248 254 250 238 230 233 227 231 225 225
356 358 0 1 1 360 359 359 356 352 348 346 346 347 344 347 348 353 356 351 352 352 352 358 360 358 350 349 336 305 271 261 252 254 257 254 249 243 239 235 237 229 227
356 357 358 359 359 357 357 358 355 351 349 344 341 343 345 348 352 356 0 356 356 354 352 357 355 353 356 356 349 325 289 269 253 253 256 256 256 251 244 239 232 230 229
354 355 357 357 355 353 353 354 351 349 347 346 343 341 340 344 345 348 351 355 356 356 353 357 345 340 345 355 356 337 309 275 263 252 254 253 253 253 245 238 233 223 219
349 352 354 352 349 348 348 347 346 343 342 345 345 342 340 342 343 344 345 349 351 351 349 351 343 344 346 347 347 342 318 296 287 267 260 256 256 250 244 235 227 220 222
344 347 346 345 343 342 343 342 341 338 337 338 340 339 339 337 338 340 341 342 343 341 341 343 340 338 341 348 350 348 331 309 293 286 273 263 252 246 239 229 231 229 226
339 340 338 337 337 337 337 338 337 335 333 335 337 336 337 335 333 334 335 336 338 338 337 340 338 335 335 337 342 345 335 321 296 289 276 274 265 260 250 242 239 231 227
337 338 337 335 335 335 333 333 331 330 329 331 334 334 334 333 331 331 333 334 335 337 337 335 335 330 330 330 335 337 339 329 320 305 296 288 278 270 260 255 242 240 244
333 332 333 332 332 332 330 329 328 326 324 329 331 330 329 330 330 331 333 333 331 330 331 331 329 327 326 328 332 331 329 326 315 312 300 293 278 267 258 256 246 244 241
323 324 325 325 326 326 326 326 325 324 324 329 330 327 326 325 326 327 328 329 329 327 328 326 325 322 321 317 320 323 319 315 314 312 306 305 293 277 260 252 251 251 237
321 321 323 325 325 323 322 321 322 322 325 325 324 325 324 322 319 318 318 321 322 323 322 323 326 323 325 326 322 322 321 317 315 311 306 302 295 282 258 249 251 253 248
318 320 320 322 323 321 320 321 318 319 321 318 319 320 319 317 316 315 317 317 317 319 318 319 323 324 324 325 322 316 314 315 316 313 308 301 293 287 274 263 260 257 259
314 317 316 318 321 321 322 322 319 320 318 316 316 318 317 315 312 311 312 315 316 317 317 318 321 323 323 324 320 315 309 309 312 308 305 298 290 288 283 272 262 262 263
311 315 316 316 319 319 319 321 318 317 316 315 314 316 317 313 310 308 310 314 317 316 315 316 318 318 318 317 317 313 311 309 309 307 304 297 290 288 279 274 271 266 264
307 311 311 313 316 314 314 316 314 313 313 314 315 315 315 311 308 309 310 313 313 314 314 313 313 314 314 316 315 308 305 307 307 306 305 300 292 284 277 275 272 269 268
306 308 309 309 312 312 313 314 314 313 314 314 316 317 315 313 311 307 308 311 311 311 312 313 312 312 311 310 310 307 301 303 303 302 301 296 290 282 278 275 272 270 269
301 304 307 307 309 310 311 314 314 314 313 313 313 313 314 313 310 308 305 308 310 310 310 309 307 308 308 307 306 306 302 299 299 297 296 294 289 282 276 275 274 274 271
299 303 304 306 306 308 310 310 313 315 314 314 311 310 310 311 310 308 307 307 308 309 307 308 305 303 303 304 304 304 302 297 295 295 292 288 287 283 277 276 276 276 275
295 297 301 304 306 306 308 308 310 311 313 311 311 311 313 311 311 310 307 306 305 307 307 308 307 301 299 301 304 302 301 298 297 295 293 290 286 283 279 276 276 277 276
289 293 297 301 304 305 306 308 309 309 308 308 310 310 313 313 311 311 307 305 304 307 309 308 307 305 301 300 303 304 301 298 294 292 290 288 285 282 282 280 277 276 274
285 290 293 295 298 301 304 305 305 305 306 306 309 310 310 310 310 310 307 305 304 305 308 310 308 305 302 301 304 304 304 300 295 291 288 287 285 285 284 284 282 277 274
Height
5889 5888 5887 5886 5885 5884 5883 5882 5881 5880 5879 5877 5876 5875 5874 5873 5872 5871 5870 5869 5868 5867 5867 5867 5867 5866 5866 5866 5866 5867 5867 5867 5868 5868 5869 5869 5870 5870 5872 5872 5873 5874 5875
5890 5888 5888 5887 5886 5885 5884 5882 5881 5880 5879 5878 5877 5876 5874 5873 5872 5871 5870 5869 5868 5867 5867 5866 5866 5866 5866 5865 5866 5866 5866 5867 5867 5868 5869 5869 5869 5870 5871 5872 5873 5874 5874
5890 5889 5888 5887 5886 5885 5884 5883 5882 5881 5879 5878 5877 5876 5875 5874 5872 5871 5870 5869 5868 5867 5866 5866 5866 5865 5865 5865 5865 5865 5866 5866 5867 5867 5868 5868 5869 5870 5871 5872 5872 5873 5874
5891 5889 5888 5887 5886 5885 5884 5883 5882 5881 5879 5878 5877 5876 5875 5874 5873 5871 5870 5869 5868 5867 5866 5866 5865 5865 5865 5865 5864 5864 5865 5865 5866 5867 5867 5867 5868 5869 5870 5871 5872 5872 5873
5891 5890 5889 5887 5887 5886 5884 5883 5882 5881 5880 5878 5877 5876 5875 5874 5873 5872 5871 5869 5868 5867 5867 5866 5865 5865 5864 5864 5864 5864 5864 5865 5865 5866 5867 5868 5868 5869 5869 5870 5871 5872 5873
5891 5890 5889 5888 5887 5886 5885 5883 5882 5881 5880 5879 5877 5876 5875 5874 5873 5872 5871 5870 5869 5868 5867 5866 5865 5865 5864 5864 5863 5863 5864 5864 5865 5865 5866 5867 5867 5868 5869 5869 5870 5871 5872
5892 5890 5889 5888 5887 5886 5885 5884 5882 5881 5880 5879 5878 5876 5875 5875 5873 5873 5871 5870 5869 5868 5868 5867 5866 5865 5865 5864 5863 5863 5863 5864 5864 5865 5865 5866 5866 5867 5868 5869 5869 5870 5871
5892 5890 5889 5888 5887 5886 5885 5884 5883 5882 5880 5879 5878 5877 5876 5875 5874 5873 5872 5871 5869 5869 5868 5867 5866 5865 5865 5864 5863 5862 5862 5863 5864 5864 5865 5865 5866 5866 5867 5867 5868 5869 5870
5892 5891 5889 5888 5888 5887 5886 5884 5883 5882 5881 5880 5878 5877 5876 5875 5874 5873 5872 5871 5870 5869 5868 5867 5866 5866 5865 5864 5863 5862 5862 5862 5863 5863 5864 5864 5865 5865 5866 5866 5866 5868 5869
5892 5891 5890 5889 5888 5887 5886 5885 5883 5882 5881 5880 5878 5877 5876 5875 5874 5873 5872 5871 5870 5869 5868 5867 5866 5866 5865 5864 5863 5862 5862 5862 5862 5862 5863 5863 5864 5864 5864 5865 5866 5867 5868
5892 5891 5890 5889 5888 5887 5886 5885 5884 5882 5881 5880 5879 5877 5876 5875 5874 5873 5872 5871 5870 5869 5868 5867 5866 5865 5865 5864 5863 5862 5862 5861 5862 5862 5862 5862 5862 5863 5863 5864 5865 5866 5868
5893 5891 5890 5888 5887 5887 5886 5884 5883 5882 5881 5880 5879 5878 5877 5875 5874 5873 5872 5871 5870 5869 5868 5867 5866 5865 5865 5864 5863 5862 5861 5861 5861 5861 5861 5861 5861 5862 5862 5863 5864 5865 5866
5892 5891 5889 5888 5887 5886 5885 5884 5883 5881 5881 5879 5878 5877 5876 5875 5874 5873 5872 5871 5870 5869 5868 5867 5866 5865 5864 5864 5863 5862 5861 5861 5861 5860 5860 5860 5860 5861 5861 5862 5863 5864 5865
5892 5891 5890 5888 5887 5886 5885 5884 5883 5881 5880 5879 5878 5877 5876 5875 5874 5873 5872 5871 5870 5869 5868 5867 5866 5865 5864 5863 5862 5862 5861 5860 5860 5859 5859 5859 5859 5859 5860 5861 5862 5863 5864
5892 5890 5889 5888 5887 5886 5884 5883 5882 5881 5879 5878 5877 5876 5875 5874 5873 5872 5871 5870 5869 5868 5867 5866 5865 5864 5863 5863 5862 5861 5860 5859 5859 5859 5858 5857 5857 5857 5858 5859 5860 5861 5862
5891 5890 5889 5888 5887 5885 5884 5883 5881 5880 5879 5878 5876 5875 5875 5874 5873 5871 5870 5869 5868 5867 5866 5866 5865 5864 5863 5862 5861 5860 5859 5858 5858 5857 5856 5856 5856 5856 5857 5858 5858 5860 5861
5890 5889 5888 5887 5886 5884 5883 5882 5880 5879 5878 5877 5876 5874 5874 5872 5871 5870 5869 5868 5867 5866 5865 5864 5863 5863 5862 5861 5860 5859 5858 5857 5857 5856 5855 5855 5855 5855 5856 5856 5857 5858 5859
5888 5888 5886 5885 5884 5883 5882 5880 5879 5878 5877 5876 5875 5874 5872 5871 5870 5869 5868 5867 5866 5865 5864 5863 5862 5861 5860 5859 5859 5858 5857 5856 5855 5855 5854 5853 5853 5854 5854 5855 5856 5856 5857
5887 5886 5885 5884 5883 5882 5881 5879 5878 5877 5875 5875 5873 5872 5871 5869 5868 5867 5867 5866 5865 5864 5863 5862 5861 5860 5859 5858 5857 5856 5856 5855 5854 5853 5853 5852 5851 5852 5852 5853 5853 5854 5855
5885 5884 5883 5883 5881 5880 5879 5878 5876 5875 5874 5873 5872 5870 5869 5868 5867 5866 5865 5864 5863 5862 5861 5860 5859 5858 5857 5856 5856 5855 5854 5853 5852 5852 5851 5850 5850 5850 5850 5850 5851 5852 5852
5883 5882 5882 5881 5880 5878 5877 5876 5875 5873 5872 5871 5870 5868 5867 5866 5865 5864 5863 5862 5862 5861 5860 5858 5857 5856 5855 5854 5853 5853 5852 5851 5850 5849 5848 5848 5847 5847 5847 5848 5848 5849 5850
5881 5880 5879 5878 5877 5876 5875 5874 5873 5871 5870 5869 5867 5866 5865 5864 5863 5862 5861 5860 5860 5859 5857 5856 5855 5854 5853 5852 5851 5850 5849 5849 5848 5846 5846 5845 5845 5844 5845 5845 5846 5846 5846
5879 5878 5877 5876 5875 5874 5873 5872 5871 5869 5868 5867 5865 5864 5863 5862 5861 5860 5859 5858 5857 5856 5855 5854 5853 5851 5851 5849 5848 5847 5846 5845 5845 5844 5843 5843 5842 5842 5842 5842 5843 5843 5843
5876 5875 5874 5874 5873 5872 5871 5869 5868 5867 5865 5864 5863 5862 5860 5859 5859 5858 5857 5855 5855 5854 5852 5851 5850 5848 5847 5846 5845 5843 5842 5841 5841 5841 5840 5840 5839 5839 5839 5839 5839 5839 5839
5873 5873 5872 5871 5870 5869 5868 5867 5865 5864 5863 5862 5861 5860 5858 5857 5856 5855 5854 5853 5852 5851 5850 5848 5847 5845 5844 5843 5842 5840 5839 5838 5837 5837 5837 5837 5836 5835 5835 5835 5836 5835 5835
5869 5869 5869 5868 5867 5867 5866 5864 5863 5862 5861 5860 5858 5857 5856 5855 5854 5853 5852 5851 5850 5848 5847 5845 5844 5842 5841 5839 5838 5837 5835 5834 5833 5833 5833 5832 5832 5832 5831 5831 5831 5831 5831